Weather History for Perryton, TX

Change the Weather History Date:

Thursday, December 20, 2012

  Actual Average Record
Temperature  
Mean Temperature 32 °F -  
Max Temperature 46 °F 43 °F 71 °F (1978)
Min Temperature 19 °F 18 °F 0 °F (1983)
Degree Days  
Heating Degree Days 32    
Moisture  
Dew Point 12 °F    
Average Humidity 51    
Maximum Humidity 86    
Minimum Humidity 22    
Precipitation  
Precipitation 0.00 in - - ()
Sea Level Pressure  
Sea Level Pressure 30.26 in    
Wind  
Wind Speed 20 mph (WNW)    
Max Wind Speed 34 mph    
Max Gust Speed 44 mph    
Visibility 10 miles    
Events      
Averages and records for this station are not official NWS values.
T = Trace of Precipitation, MM = Missing Value Source: NWS Daily Summary

Daily Weather History Graph

Daily Weather History Graph

Search for Another Location

Airport:

Trip Planner

Search our weather history database for the weather conditions in past years. The results will help you decide how hot, cold, wet, or windy it might be!

Date:

Astronomy

Dec. 20, 2012 Rise Set
Actual Time 7:50 AM CST 5:31 PM CST
Civil Twilight 7:21 AM CST 6:00 PM CST
Nautical Twilight 6:49 AM CST 6:32 PM CST
Astronomical Twilight 6:18 AM CST 7:03 PM CST
Moon 12:42 PM CST (12/20) 12:48 AM CST (12/20)
Length of Visible Light 10h 38m
Length of Day
9h 40m
First Quarter, 55% of the Moon is Illuminated
Dec 20
First Quarter
Dec 28
Full
Jan 4
Last Quarter
Jan 11
New
Jan 18
First Quarter

Hourly Weather History & Observations

Time (CST) Temp. Windchill Dew Point Humidity Pressure Visibility Wind Dir Wind Speed Gust Speed Precip Events Conditions
12:15 AM 28.4 °F 11.8 °F 24.8 °F 86% 30.04 in 3.0 mi NW 34.5 mph 43.7 mph N/A   Unknown
12:35 AM 28.4 °F 13.3 °F 21.2 °F 74% 30.05 in 10.0 mi NW 27.6 mph 39.1 mph N/A   Clear
12:55 AM 28.4 °F 12.3 °F 19.4 °F 69% 30.06 in 10.0 mi NW 32.2 mph 36.8 mph N/A   Mostly Cloudy
1:15 AM 30.2 °F 14.9 °F 19.4 °F 64% 30.07 in 10.0 mi NW 31.1 mph 41.4 mph N/A   Scattered Clouds
1:35 AM 28.4 °F 13.3 °F 17.6 °F 64% 30.08 in 10.0 mi NW 27.6 mph 38.0 mph N/A   Clear
1:55 AM 28.4 °F 13.8 °F 17.6 °F 64% 30.10 in 10.0 mi NW 25.3 mph - N/A   Clear
2:15 AM 26.6 °F 12.0 °F 15.8 °F 64% 30.11 in 10.0 mi NW 23.0 mph 28.8 mph N/A   Clear
2:35 AM 26.6 °F 12.0 °F 14.0 °F 59% 30.12 in 10.0 mi NW 23.0 mph 27.6 mph N/A   Clear
2:55 AM 24.8 °F 10.0 °F 14.0 °F 64% 30.14 in 10.0 mi NW 21.9 mph 26.5 mph N/A   Clear
3:15 AM 23.0 °F 7.6 °F 14.0 °F 68% 30.15 in 10.0 mi NW 21.9 mph - N/A   Clear
3:35 AM 23.0 °F 9.6 °F 14.0 °F 68% 30.16 in 10.0 mi NW 16.1 mph - N/A   Clear
3:55 AM 23.0 °F 9.2 °F 14.0 °F 68% 30.17 in 10.0 mi WNW 17.3 mph - N/A   Clear
4:15 AM 21.2 °F 7.8 °F 12.2 °F 68% 30.18 in 10.0 mi WNW 15.0 mph - N/A   Clear
4:35 AM 21.2 °F 7.8 °F 12.2 °F 68% 30.18 in 10.0 mi WNW 15.0 mph - N/A   Clear
4:55 AM 21.2 °F 7.3 °F 12.2 °F 68% 30.19 in 10.0 mi NW 16.1 mph - N/A   Clear
5:15 AM 21.2 °F 6.8 °F 12.2 °F 68% 30.20 in 10.0 mi NW 17.3 mph 23.0 mph N/A   Clear
5:35 AM 21.2 °F 6.4 °F 12.2 °F 68% 30.21 in 10.0 mi NW 18.4 mph - N/A   Clear
5:55 AM 21.2 °F 7.3 °F 10.4 °F 63% 30.22 in 10.0 mi NW 16.1 mph - N/A   Clear
6:15 AM 19.4 °F 6.0 °F 10.4 °F 68% 30.23 in 10.0 mi NW 13.8 mph - N/A   Clear
6:35 AM 19.4 °F 4.5 °F 8.6 °F 63% 30.24 in 10.0 mi WNW 17.3 mph - N/A   Clear
6:55 AM 21.2 °F 6.0 °F 8.6 °F 58% 30.25 in 10.0 mi WNW 19.6 mph - N/A   Clear
7:15 AM 19.4 °F 5.0 °F 8.6 °F 63% 30.25 in 10.0 mi WNW 16.1 mph - N/A   Clear
7:35 AM 19.4 °F 3.6 °F 8.6 °F 63% 30.27 in 10.0 mi WNW 19.6 mph - N/A   Clear
7:55 AM 21.2 °F 5.6 °F 8.6 °F 58% 30.28 in 10.0 mi WNW 20.7 mph - N/A   Clear
8:15 AM 21.2 °F 6.8 °F 8.6 °F 58% 30.28 in 10.0 mi WNW 17.3 mph - N/A   Clear
8:35 AM 21.2 °F 7.3 °F 8.6 °F 58% 30.29 in 10.0 mi WNW 16.1 mph - N/A   Clear
8:55 AM 23.0 °F 10.1 °F 10.4 °F 59% 30.30 in 10.0 mi WNW 15.0 mph - N/A   Clear
9:15 AM 26.6 °F 13.4 °F 10.4 °F 51% 30.31 in 10.0 mi WNW 18.4 mph - N/A   Clear
9:35 AM 26.6 °F 13.8 °F 10.4 °F 51% 30.31 in 10.0 mi NW 17.3 mph - N/A   Clear
9:55 AM 28.4 °F 15.4 °F 10.4 °F 47% 30.32 in 10.0 mi NW 19.6 mph - N/A   Clear
10:15 AM 30.2 °F 17.8 °F 10.4 °F 44% 30.33 in 10.0 mi NW 19.6 mph - N/A   Clear
10:35 AM 32.0 °F 19.8 °F 12.2 °F 44% 30.34 in 10.0 mi NW 20.7 mph - N/A   Clear
10:55 AM 32.0 °F 20.8 °F 12.2 °F 44% 30.35 in 10.0 mi NW 17.3 mph - N/A   Clear
11:15 AM 33.8 °F 23.2 °F 14.0 °F 44% 30.35 in 10.0 mi NW 17.3 mph 21.9 mph N/A   Clear
11:35 AM 33.8 °F 23.5 °F 12.2 °F 41% 30.35 in 10.0 mi NW 16.1 mph - N/A   Clear
11:55 AM 35.6 °F 24.8 °F 12.2 °F 38% 30.34 in 10.0 mi NW 19.6 mph - N/A   Clear
12:15 PM 35.6 °F 25.2 °F 12.2 °F 38% 30.33 in 10.0 mi NW 18.4 mph - N/A   Clear
12:35 PM 37.4 °F 27.5 °F 12.2 °F 36% 30.32 in 10.0 mi NW 18.4 mph - N/A   Clear
12:55 PM 37.4 °F 27.8 °F 12.2 °F 36% 30.32 in 10.0 mi NW 17.3 mph 20.7 mph N/A   Clear
1:15 PM 39.2 °F 30.2 °F 12.2 °F 33% 30.31 in 10.0 mi NW 17.3 mph - N/A   Clear
1:35 PM 41.0 °F 32.8 °F 12.2 °F 31% 30.31 in 10.0 mi WNW 16.1 mph 23.0 mph N/A   Clear
1:55 PM 42.8 °F 35.1 °F 12.2 °F 29% 30.30 in 10.0 mi WNW 16.1 mph - N/A   Clear
2:15 PM 42.8 °F 34.8 °F 12.2 °F 29% 30.29 in 10.0 mi West 17.3 mph - N/A   Clear
2:35 PM 44.6 °F 37.2 °F 12.2 °F 27% 30.29 in 10.0 mi WNW 17.3 mph - N/A   Clear
2:55 PM 44.6 °F 37.2 °F 8.6 °F 23% 30.28 in 10.0 mi WNW 17.3 mph 20.7 mph N/A   Clear
3:15 PM 44.6 °F 37.4 °F 8.6 °F 23% 30.28 in 10.0 mi NW 16.1 mph 20.7 mph N/A   Clear
3:35 PM 46.4 °F 40.1 °F 8.6 °F 22% 30.28 in 10.0 mi WNW 15.0 mph - N/A   Clear
3:55 PM 46.4 °F 40.4 °F 8.6 °F 22% 30.28 in 10.0 mi WNW 13.8 mph - N/A   Clear
4:15 PM 46.4 °F 40.7 °F 8.6 °F 22% 30.28 in 10.0 mi WNW 12.7 mph - N/A   Clear
4:35 PM 44.6 °F 38.8 °F 8.6 °F 23% 30.29 in 10.0 mi WNW 11.5 mph - N/A   Clear
4:55 PM 44.6 °F 39.7 °F 10.4 °F 25% 30.30 in 10.0 mi WNW 9.2 mph - N/A   Clear
5:15 PM 41.0 °F 36.4 °F 14.0 °F 33% 30.30 in 10.0 mi NW 6.9 mph - N/A   Clear
5:35 PM 37.4 °F 32.1 °F 12.2 °F 36% 30.29 in 10.0 mi NW 6.9 mph - N/A   Clear
5:55 PM 35.6 °F 30.7 °F 12.2 °F 38% 30.29 in 10.0 mi WNW 5.8 mph - N/A   Clear
6:15 PM 33.8 °F 28.6 °F 12.2 °F 41% 30.30 in 10.0 mi West 5.8 mph - N/A   Clear
6:35 PM 33.8 °F 27.7 °F 12.2 °F 41% 30.30 in 10.0 mi West 6.9 mph - N/A   Clear
6:55 PM 32.0 °F 27.5 °F 12.2 °F 44% 30.30 in 10.0 mi West 4.6 mph - N/A   Clear
7:15 PM 33.8 °F 29.6 °F 10.4 °F 38% 30.30 in 10.0 mi West 4.6 mph - N/A   Clear
7:35 PM 28.4 °F 23.3 °F 15.8 °F 59% 30.30 in 10.0 mi WSW 4.6 mph - N/A   Clear
7:55 PM 28.4 °F 22.2 °F 15.8 °F 59% 30.31 in 10.0 mi WSW 5.8 mph - N/A   Clear
8:15 PM 26.6 °F 21.2 °F 14.0 °F 59% 30.31 in 10.0 mi WSW 4.6 mph - N/A   Clear
8:35 PM 26.6 °F 20.0 °F 14.0 °F 59% 30.31 in 10.0 mi SW 5.8 mph - N/A   Clear
8:55 PM 24.8 °F 15.3 °F 14.0 °F 64% 30.31 in 10.0 mi SW 9.2 mph - N/A   Clear
9:15 PM 23.0 °F 13.1 °F 14.0 °F 68% 30.31 in 10.0 mi WSW 9.2 mph - N/A   Clear
9:35 PM 26.6 °F 17.5 °F 14.0 °F 59% 30.31 in 10.0 mi SW 9.2 mph - N/A   Clear
9:55 PM 28.4 °F 19.1 °F 14.0 °F 55% 30.31 in 10.0 mi SW 10.4 mph - N/A   Clear
10:15 PM 28.4 °F 19.7 °F 12.2 °F 51% 30.31 in 10.0 mi SW 9.2 mph - N/A   Clear
10:35 PM 30.2 °F 21.3 °F 12.2 °F 47% 30.31 in 10.0 mi SW 10.4 mph - N/A   Clear
10:55 PM 28.4 °F 19.7 °F 12.2 °F 51% 30.31 in 10.0 mi SW 9.2 mph - N/A   Clear
11:15 PM 26.6 °F 18.2 °F 12.2 °F 55% 30.30 in 10.0 mi SW 8.1 mph - N/A   Clear
11:35 PM 26.6 °F 17.5 °F 12.2 °F 55% 30.30 in 10.0 mi SW 9.2 mph - N/A   Clear
11:55 PM 26.6 °F 17.5 °F 14.0 °F 59% 30.29 in 10.0 mi SW 9.2 mph - N/A   Clear